COSMOS 2251 DEB, 35997

Orbit data source: Space-Track

COSMOS 2251 DEB, 35997 is space debris in LEO originally from a launch on Wed, 16 Jun 1993 UTC launched from the Plesetsk Missile And Space Complex (PKMTR). The debris from Iridium 33, an American commercial communications satellite, has been tracked extensively since its accidental collision with the defunct Russian satellite Cosmos 2251 in 2009. This event, occurring at high speed in low Earth orbit (LEO), generated thousands of pieces of space debris, significantly increasing the risk of further collisions. The Iridium 33 debris cloud has impacted space traffic management and orbital debris mitigation strategies, making it a subject of ongoing study in space situational awareness.

Loading next visibility...
Identifier
35997, 1993-036AWP
Orbit
LEO
Country
Flag of CISCIS
Related business
Manufacturer
Unknown
Mission
Spacecraft
Bus & Motor
Unknown
Mass
Unknown
Launch date (UTC)
1993-06-16 (33 years ago)
Launch vehicle
Unknown
Launch site
Plesetsk Missile And Space Complex (PKMTR)
Object type
Payload
Rocket body
Debris
Shape & HBR
Unknown shape, 0.1 m
Radar Cross Section
Small (<0.1 m²)

Expand to show TLE details & history
Last TLE update: 1 day ago

TLE from 1 day ago
0 COSMOS 2251 DEB
1 35997U 93036AWP 26122.17265027  .00002336  00000-0  58245-3 0  9998
2 35997  74.0440 282.9586 0014609 325.6165  34.4049 14.52146231729227
Epoch: 2026-05-02T04:08Z
TLE epoch observation values (Epoch: 2026-05-02T04:08:36.983Z)
Latitude
-0.00008°
Longitude
0.71012°
Altitude
712.728 km
Speed
7.504 km/s
True Right ascension
18h 51m 50s
True Declination
0° 00' 00"
Sunlit
Object was in daylight at epoch
Visualization orbit readout
Latitude
Unknown
Longitude
Unknown
Altitude
Unknown
Speed
Unknown
Apparent Right ascension
Unknown
Apparent Declination
Unknown
Sunlit
N/A
Visualization observer readout
Local Sidereal Time
17:11:05
Azimuth
Unknown
Elevation
Unknown
Doppler factor
Unknown
Orbital elements
Apogee altitude
726.617 km
Perigee altitude
705.889 km
Semi-major axis
7,094.39 km
Eccentricity
0.00146
Inclination
74.044°
RAAN
282.9586°
Arg. of periapsis
325.6165°
True anomaly
34.49963°
Mean anomaly
34.4049°
Eccentric anomaly
34.45225°
Mean motion
3.63221 °/min
Orbital period
99.11 mins
BSTAR
0.00058245
Loading maneuver chart data...
Computing Atmospheric mass density...
Loading historical data...
Loading historical data...
Loading historical data...
Loading historical data...
Loading historical data...
Loading historical data...
Loading historical data...

Documentation

Showing up to 5 results
|